Weather History for CYYF - September, 2012

Change the Weather History Date:

Sunday, September 23, 2012

  Actual Average Record
Temperature  
Mean Temperature 60 °F -  
Max Temperature 75 °F 61 °F 84 °F (2011)
Min Temperature 46 °F 39 °F 28 °F (2000)
Degree Days  
Heating Degree Days 4    
Growing Degree Days 10 (Base 50)    
Moisture  
Dew Point 48 °F    
Average Humidity 64    
Maximum Humidity 82    
Minimum Humidity 36    
Precipitation  
Precipitation 0.00 in 0.02 in - ()
Sea Level Pressure  
Sea Level Pressure 30.03 in    
Wind  
Wind Speed 4 mph ()    
Max Wind Speed 10 mph    
Max Gust Speed -    
Visibility 15.0 miles    
Events      
Averages and records for this station are not official NWS values.
T = Trace of Precipitation, MM = Missing Value Source: Averaged Metar Reports

Daily Weather History Graph

Daily Weather History Graph

Search for Another Location

Airport or City:

Trip Planner

Search our weather history database for the weather conditions in past years. The results will help you decide how hot, cold, wet, or windy it might be!

Date:

Astronomy

Sep. 23, 2012 Rise Set
Actual Time 6:47 AM PDT 6:52 PM PDT
Civil Twilight 6:15 AM PDT 7:24 PM PDT
Nautical Twilight 5:37 AM PDT 8:02 PM PDT
Astronomical Twilight 4:58 AM PDT 8:40 PM PDT
Moon 3:26 PM PDT (9/23) No Moon Set
Length of Visible Light 13h 09m
Length of Day
12h 05m
First Quarter, 61% of the Moon is Illuminated
Sep 23
First Quarter
Sep 29
Full
Oct 8
Last Quarter
Oct 15
New
Oct 21
First Quarter

Hourly Weather History & Observations

Time (PDT) Temp. Dew Point Humidity Pressure Visibility Wind Dir Wind Speed Gust Speed Precip Events Conditions
12:00 AM 57.2 °F 46.4 °F 67% 29.98 in 15.0 mi NNE 3.5 mph - N/A   Mostly Cloudy
1:00 AM 53.6 °F 46.4 °F 77% 29.99 in 15.0 mi NNE 5.8 mph - N/A   Scattered Clouds
2:00 AM 55.4 °F 46.4 °F 72% 29.99 in 15.0 mi North 5.8 mph - N/A   Partly Cloudy
3:00 AM 53.6 °F 44.6 °F 72% 30.01 in 15.0 mi North 6.9 mph - N/A   Scattered Clouds
4:00 AM 51.8 °F 44.6 °F 76% 30.04 in 15.0 mi Calm Calm - N/A   Scattered Clouds
5:00 AM 50 °F 44 °F 71% 30.05 in - Calm Calm - -   Scattered Clouds
5:00 AM 50.0 °F 42.8 °F 76% 30.05 in 15.0 mi Calm Calm - N/A   Mostly Cloudy
6:00 AM 48.2 °F 42.8 °F 82% 30.06 in 15.0 mi North 5.8 mph - N/A   Mostly Cloudy
7:00 AM 51.8 °F 44.6 °F 76% 30.08 in 15.0 mi NNW 5.8 mph - N/A   Scattered Clouds
8:00 AM 53.6 °F 44.6 °F 72% 30.09 in 15.0 mi North 3.5 mph - N/A   Mostly Cloudy
9:00 AM 60.8 °F 50.0 °F 68% 30.09 in 15.0 mi North 10.4 mph - N/A   Mostly Cloudy
10:00 AM 64.4 °F 51.8 °F 64% 30.09 in 15.0 mi North 9.2 mph - N/A   Mostly Cloudy
11:00 AM 67 °F 53 °F 50% 30.08 in - North 8.1 mph - -   Clear
11:00 AM 68.0 °F 51.8 °F 56% 30.08 in 15.0 mi NNW 8.1 mph - N/A   Mostly Cloudy
1:00 PM 69.8 °F 50.0 °F 49% 30.06 in 15.0 mi North 9.2 mph - N/A   Scattered Clouds
2:00 PM 71.6 °F 51.8 °F 50% 30.03 in 15.0 mi North 10.4 mph - N/A   Scattered Clouds
3:00 PM 73.4 °F 51.8 °F 47% 30.01 in 15.0 mi North 10.4 mph - N/A   Scattered Clouds
4:00 PM 73.4 °F 51.8 °F 47% 30.00 in 15.0 mi North 8.1 mph - N/A   Scattered Clouds
5:00 PM 74 °F 52 °F 36% 30.00 in - NNW 8.1 mph - -   Scattered Clouds
5:00 PM 73.4 °F 51.8 °F 47% 29.99 in 15.0 mi North 8.1 mph - N/A   Mostly Cloudy
6:00 PM 71.6 °F 51.8 °F 50% 29.99 in 15.0 mi NNW 5.8 mph - N/A   Scattered Clouds
7:00 PM 64.4 °F 51.8 °F 64% 29.99 in 15.0 mi NNE 4.6 mph - N/A   Scattered Clouds
8:00 PM 60.8 °F 48.2 °F 63% 30.01 in 15.0 mi NNE 2.3 mph - N/A   Scattered Clouds
9:00 PM 57.2 °F 48.2 °F 72% 30.01 in 15.0 mi Calm Calm - N/A   Partly Cloudy
10:00 PM 57.2 °F 50.0 °F 77% 30.01 in 15.0 mi Calm Calm - N/A   Clear
11:00 PM 55 °F 47 °F 68% 30.03 in - Calm Calm - -  
11:00 PM 55.4 °F 48.2 °F 77% 30.03 in 15.0 mi Calm Calm - N/A   Clear